User: anonymous   Login
Location: Oshawa
(43.9000°N, 78.8670°W)
Time: 21:49:32
(UTC-04:00)
Language:

CARTOSAT-1 - Orbit

View from above orbital plane
View from above orbital plane
View from above satellite
View from above satellite

Ground track
Ground track

The orbit data is extracted from the following two-line orbital elements,

1 28649U 05017A   16244.38232948 -.00000952  00000-0 -10961-3 0  9996
2 28649  97.8934 316.8066 0000452 305.6030  54.5135 14.83428577613012
Epoch (UTC): 31 August 2016 09:10:33
Eccentricity: 0.0000452
inclination: 97.8934°
perigee height: 618 km
apogee height: 619 km
right ascension of ascending node: 316.8066°
argument of perigee: 305.6030°
revolutions per day: 14.83428577
mean anomaly at epoch: 54.5135°
orbit number at epoch: 61301

The dashed part of the orbit path shows where the satellite is in the earth's shadow,  

DLR